This is the latest recevied weather packets stored in our database for station/object MM1PTT-13. If no packets are shown the sender has not sent any weather packets the latest 10 day(s).
| Time | Temp. | Humidity | Pressure | Rain* | Wind** | Luminosity | Snow |
|---|---|---|---|---|---|---|---|
| 1777663242 | 15° C | 73% | 987.1 hPa | 0 mm | - | 15 W/m² | - |
| 1777662943 | 15° C | 70% | 987.1 hPa | 0 mm | - | 21 W/m² | - |
| 1777662643 | 15.56° C | 69% | 987.1 hPa | 0 mm | - | 24 W/m² | - |
| 1777662342 | 15.56° C | 68% | 987.1 hPa | 0 mm | - | 25 W/m² | - |
| 1777662042 | 15.56° C | 66% | 987.1 hPa | 0 mm | - | 28 W/m² | - |
| 1777661743 | 16.11° C | 60% | 987.5 hPa | 0 mm | - | 31 W/m² | - |
| 1777661443 | 16.11° C | 61% | 987.1 hPa | 0 mm | - | 38 W/m² | - |
| 1777661143 | 16.11° C | 60% | 987.1 hPa | 0 mm | - | 36 W/m² | - |
| 1777660843 | 16.11° C | 60% | 987.1 hPa | 0 mm | - | 44 W/m² | - |
| 1777660542 | 16.11° C | 60% | 987.1 hPa | 0 mm | - | 37 W/m² | - |
| 1777660242 | 16.67° C | 59% | 987.1 hPa | 0 mm | - | 38 W/m² | - |
| 1777659943 | 16.67° C | 59% | 987.1 hPa | 0 mm | - | 59 W/m² | - |
| 1777659643 | 16.67° C | 59% | 986.8 hPa | 0 mm | - | 75 W/m² | - |
| 1777659345 | 16.67° C | 58% | 986.8 hPa | 0 mm | - | 81 W/m² | - |
| 1777659043 | 16.67° C | 58% | 986.8 hPa | 0 mm | - | 85 W/m² | - |
| 1777658743 | 17.22° C | 58% | 986.8 hPa | 0 mm | - | 95 W/m² | - |
| 1777658443 | 17.22° C | 57% | 986.8 hPa | 0 mm | - | 104 W/m² | - |
| 1777658143 | 17.22° C | 58% | 987.1 hPa | 0 mm | - | 76 W/m² | - |
| 1777657843 | 17.22° C | 57% | 987.1 hPa | 0 mm | - | 59 W/m² | - |
| 1777657543 | 17.22° C | 58% | 986.8 hPa | 0 mm | - | 84 W/m² | - |
| 1777657244 | 17.22° C | 57% | 986.8 hPa | 0 mm | - | 104 W/m² | - |
| 1777656943 | 17.22° C | 57% | 987.1 hPa | 0 mm | - | 130 W/m² | - |
| 1777656642 | 17.22° C | 56% | 987.1 hPa | 0 mm | - | 163 W/m² | - |
| 1777656342 | 16.67° C | 57% | 987.1 hPa | 0 mm | - | 192 W/m² | - |
| 1777656042 | 17.22° C | 57% | 987.1 hPa | 0 mm | - | 132 W/m² | - |
* Rain latest hour (hover to see other rain measurements)
** Current wind speed in m/s (hover to see current wind gust speed)